Weather History for KBGR - April, 2013

Change the Weather History Date:

Wednesday, April 10, 2013

  Actual Average Record
Temperature  
Mean Temperature 46 °F 40 °F  
Max Temperature 56 °F 50 °F 68 °F (1931)
Min Temperature 36 °F 30 °F 14 °F (1977)
Degree Days  
Heating Degree Days 19 25  
Month to date heating degree days 284 267  
Since 1 July heating degree days 6664 6990  
Cooling Degree Days 0 0  
Month to date cooling degree days 0 0  
Year to date cooling degree days 0 0  
Moisture  
Dew Point 38 °F    
Average Humidity 73    
Maximum Humidity 100    
Minimum Humidity 46    
Precipitation  
Precipitation 0.07 in 0.13 in 0.76 in (1944)
Month to date precipitation 0.77 1.22  
Year to date precipitation 5.73 10.01  
Snow  
Snow 0.00 in 0.10 in 5.00 in (1996)
Month to date snowfall T 2.1  
Since 1 July snowfall 73.2 64.5  
Snow Depth 0.00 in    
Sea Level Pressure  
Sea Level Pressure 29.93 in    
Wind  
Wind Speed 3 mph (West)    
Max Wind Speed 17 mph    
Max Gust Speed 22 mph    
Visibility 6 miles    
Events Fog , Rain    
T = Trace of Precipitation, MM = Missing Value Source: NWS Daily Summary

Daily Weather History Graph

Daily Weather History Graph

Search for Another Location

Airport or City:

Trip Planner

Search our weather history database for the weather conditions in past years. The results will help you decide how hot, cold, wet, or windy it might be!

Date:

Astronomy

Apr. 10, 2013 Rise Set
Actual Time 5:59 AM EDT 7:14 PM EDT
Civil Twilight 5:29 AM EDT 7:44 PM EDT
Nautical Twilight 4:53 AM EDT 8:21 PM EDT
Astronomical Twilight 4:14 AM EDT 8:59 PM EDT
Moon 5:52 AM EDT (4/10) 7:49 PM EDT (4/10)
Length of Visible Light 14h 15m
Length of Day
13h 15m
New Moon, 0% of the Moon is Illuminated
Apr 10
New Moon
Apr 18
First Quarter
Apr 25
Full
May 2
Last Quarter
May 9
New

Hourly Weather History & Observations

Time (EDT) Temp. Windchill Dew Point Humidity Pressure Visibility Wind Dir Wind Speed Gust Speed Precip Events Conditions
12:41 AM 39.2 °F - 39.2 °F 100% 29.97 in 1.5 mi Calm Calm - N/A   Mostly Cloudy
12:53 AM 39.0 °F - 39.0 °F 100% 29.97 in 1.2 mi Calm Calm - N/A   Mostly Cloudy
1:05 AM 37.4 °F 34.9 °F 37.4 °F 100% 29.97 in 0.5 mi NNW 3.5 mph - N/A Fog Fog
1:17 AM 37.4 °F - 37.4 °F 100% 29.96 in 0.5 mi Calm Calm - N/A Fog Fog
1:35 AM 37.4 °F - 37.4 °F 100% 29.96 in 0.5 mi Calm Calm - N/A Fog Fog
1:43 AM 37.4 °F - 37.4 °F 100% 29.95 in 0.2 mi Calm Calm - N/A Fog Fog
1:53 AM 37.0 °F - 37.0 °F 100% 29.95 in 0.2 mi Calm Calm - N/A Fog Fog
2:38 AM 37.4 °F - 37.4 °F 100% 29.94 in 0.2 mi Calm Calm - N/A   Overcast
2:53 AM 37.9 °F - 37.9 °F 100% 29.95 in 0.2 mi Calm Calm - 0.00 in   Light Drizzle
3:53 AM 37.9 °F 35.5 °F 37.9 °F 100% 29.94 in 0.2 mi SSW 3.5 mph - 0.02 in Rain Light Rain
4:04 AM 37.4 °F 34.9 °F 37.4 °F 100% 29.93 in 1.5 mi SW 3.5 mph - 0.01 in Rain Light Rain
4:53 AM 37.9 °F 34.4 °F 37.9 °F 100% 29.93 in 1.5 mi SSW 4.6 mph - 0.03 in Rain Light Rain
5:06 AM 37.4 °F 34.9 °F 37.4 °F 100% 29.94 in 4.0 mi SW 3.5 mph - 0.01 in Rain Light Rain
5:53 AM 37.9 °F 33.5 °F 37.9 °F 100% 29.94 in 7.0 mi SSW 5.8 mph - 0.01 in Rain Light Rain
6:45 AM 37.4 °F 33.8 °F 37.4 °F 100% 29.93 in 7.0 mi SSW 4.6 mph - 0.01 in   Overcast
6:53 AM 37.9 °F 33.5 °F 37.0 °F 97% 29.94 in 6.0 mi SW 5.8 mph - 0.01 in   Overcast
7:53 AM 37.9 °F 35.5 °F 37.9 °F 100% 29.95 in 7.0 mi SSW 3.5 mph - N/A   Overcast
8:53 AM 39.0 °F - 39.0 °F 100% 29.96 in 10.0 mi Calm Calm - N/A   Overcast
9:07 AM 39.2 °F - 37.4 °F 93% 29.94 in 10.0 mi Calm Calm - N/A   Overcast
9:53 AM 42.1 °F 38.4 °F 39.9 °F 92% 29.95 in 10.0 mi WSW 5.8 mph - N/A   Overcast
10:53 AM 46.9 °F - 43.0 °F 86% 29.94 in 10.0 mi SW 5.8 mph - N/A   Mostly Cloudy
11:53 AM 51.1 °F - 43.0 °F 74% 29.94 in 10.0 mi SW 9.2 mph - N/A   Mostly Cloudy
12:33 PM 51.8 °F - 41.0 °F 67% 29.93 in 10.0 mi WNW 8.1 mph - N/A   Mostly Cloudy
12:53 PM 51.8 °F - 41.0 °F 67% 29.92 in 10.0 mi West 9.2 mph - N/A   Mostly Cloudy
12:56 PM 51.8 °F - 41.0 °F 67% 29.92 in 10.0 mi West 5.8 mph - N/A   Mostly Cloudy
1:49 PM 51.8 °F - 39.2 °F 62% 29.92 in 10.0 mi NW 15.0 mph 18.4 mph 0.00 in Rain Light Rain
1:53 PM 51.1 °F - 37.9 °F 61% 29.92 in 10.0 mi NW 10.4 mph 18.4 mph 0.00 in Rain Light Rain
2:53 PM 55.0 °F - 36.0 °F 49% 29.90 in 10.0 mi NW 13.8 mph 21.9 mph 0.00 in   Mostly Cloudy
3:53 PM 54.0 °F - 34.0 °F 47% 29.90 in 10.0 mi NW 10.4 mph - N/A   Overcast
4:53 PM 52.0 °F - 35.1 °F 53% 29.90 in 10.0 mi North 6.9 mph - N/A   Overcast
5:53 PM 50.0 °F - 34.0 °F 54% 29.89 in 10.0 mi North 6.9 mph - N/A   Overcast
6:53 PM 48.0 °F - 34.0 °F 58% 29.91 in 10.0 mi North 3.5 mph - N/A   Overcast
7:53 PM 46.0 °F - 34.0 °F 63% 29.89 in 10.0 mi Calm Calm - N/A   Mostly Cloudy
8:53 PM 45.0 °F - 36.0 °F 71% 29.92 in 10.0 mi Calm Calm - N/A   Overcast
9:53 PM 44.1 °F - 36.0 °F 73% 29.91 in 10.0 mi Calm Calm - N/A   Overcast
10:53 PM 43.0 °F - 37.0 °F 80% 29.90 in 10.0 mi Calm Calm - N/A   Overcast
11:53 PM 43.0 °F 39.5 °F 35.1 °F 74% 29.91 in 10.0 mi West 5.8 mph - N/A   Mostly Cloudy